#datetime,building,power
2023-03-12T00:00:00,crh,5.79
2023-03-12T00:01:00,crh,4.20
2023-03-12T00:02:00,crh,4.25
2023-03-12T00:03:00,crh,4.28
2023-03-12T00:04:00,crh,4.15
2023-03-12T00:05:00,crh,3.81
2023-03-12T00:06:00,crh,5.36
2023-03-12T00:07:00,crh,5.34
2023-03-12T00:08:00,crh,5.40
2023-03-12T00:09:00,crh,7.41
2023-03-12T00:10:00,crh,8.45
2023-03-12T00:11:00,crh,8.52
2023-03-12T00:12:00,crh,8.49
2023-03-12T00:13:00,crh,8.46
2023-03-12T00:14:00,crh,8.54
2023-03-12T00:15:00,crh,8.57
2023-03-12T00:16:00,crh,7.02
2023-03-12T00:17:00,crh,7.95
2023-03-12T00:18:00,crh,6.90
2023-03-12T00:19:00,crh,6.89
2023-03-12T00:20:00,crh,7.87
2023-03-12T00:21:00,crh,7.33
2023-03-12T00:22:00,crh,7.04
2023-03-12T00:23:00,crh,5.34
2023-03-12T00:24:00,crh,5.31
2023-03-12T00:25:00,crh,4.29
2023-03-12T00:26:00,crh,6.97
2023-03-12T00:27:00,crh,6.63
2023-03-12T00:28:00,crh,7.21
2023-03-12T00:29:00,crh,7.04
2023-03-12T00:30:00,crh,6.99
2023-03-12T00:31:00,crh,8.77
2023-03-12T00:32:00,crh,8.77
2023-03-12T00:33:00,crh,8.24
2023-03-12T00:34:00,crh,6.46
2023-03-12T00:35:00,crh,7.58
2023-03-12T00:36:00,crh,7.20
2023-03-12T00:37:00,crh,6.42
2023-03-12T00:38:00,crh,5.92
2023-03-12T00:39:00,crh,5.46
2023-03-12T00:40:00,crh,5.73
2023-03-12T00:41:00,crh,5.72
2023-03-12T00:42:00,crh,5.28
2023-03-12T00:43:00,crh,7.18
2023-03-12T00:44:00,crh,7.19
2023-03-12T00:45:00,crh,5.27
2023-03-12T00:46:00,crh,3.72
2023-03-12T00:47:00,crh,3.87
2023-03-12T00:48:00,crh,3.87
2023-03-12T00:49:00,crh,5.63
2023-03-12T00:50:00,crh,5.62
2023-03-12T00:51:00,crh,6.53
2023-03-12T00:52:00,crh,5.53
2023-03-12T00:53:00,crh,6.24
2023-03-12T00:54:00,crh,5.59
2023-03-12T00:55:00,crh,3.68
2023-03-12T00:56:00,crh,3.70
2023-03-12T00:57:00,crh,5.58
2023-03-12T00:58:00,crh,5.58
2023-03-12T00:59:00,crh,3.67
2023-03-12T01:00:00,crh,3.70
2023-03-12T01:01:00,crh,5.59
2023-03-12T01:02:00,crh,6.54
2023-03-12T01:03:00,crh,5.17
2023-03-12T01:04:00,crh,5.17
2023-03-12T01:05:00,crh,7.07
2023-03-12T01:06:00,crh,7.05
2023-03-12T01:07:00,crh,5.85
2023-03-12T01:08:00,crh,5.50
2023-03-12T01:09:00,crh,5.85
2023-03-12T01:10:00,crh,5.86
2023-03-12T01:11:00,crh,4.13
2023-03-12T01:12:00,crh,5.90
2023-03-12T01:13:00,crh,3.93
2023-03-12T01:14:00,crh,3.93
2023-03-12T01:15:00,crh,5.49
2023-03-12T01:16:00,crh,5.49
2023-03-12T01:17:00,crh,5.49
2023-03-12T01:18:00,crh,5.19
2023-03-12T01:19:00,crh,5.16
2023-03-12T01:20:00,crh,3.58
2023-03-12T01:21:00,crh,4.96
2023-03-12T01:22:00,crh,3.59
2023-03-12T01:23:00,crh,3.58
2023-03-12T01:24:00,crh,3.58
2023-03-12T01:25:00,crh,3.57
2023-03-12T01:26:00,crh,3.77
2023-03-12T01:27:00,crh,3.50
2023-03-12T01:28:00,crh,3.49
2023-03-12T01:29:00,crh,3.50
2023-03-12T01:30:00,crh,3.51
2023-03-12T01:31:00,crh,4.69
2023-03-12T01:32:00,crh,3.50
2023-03-12T01:33:00,crh,5.16
2023-03-12T01:34:00,crh,5.21
2023-03-12T01:35:00,crh,5.19
2023-03-12T01:36:00,crh,5.32
2023-03-12T01:37:00,crh,5.91
2023-03-12T01:38:00,crh,3.78
2023-03-12T01:39:00,crh,4.87
2023-03-12T01:40:00,crh,3.62
2023-03-12T01:41:00,crh,3.56
2023-03-12T01:42:00,crh,3.56
2023-03-12T01:43:00,crh,3.76
2023-03-12T01:44:00,crh,3.56
2023-03-12T01:45:00,crh,3.56
2023-03-12T01:46:00,crh,3.56
2023-03-12T01:47:00,crh,3.56
2023-03-12T01:48:00,crh,5.12
2023-03-12T01:49:00,crh,5.13
2023-03-12T01:50:00,crh,5.12
2023-03-12T01:51:00,crh,6.43
2023-03-12T01:52:00,crh,5.11
2023-03-12T01:53:00,crh,5.12
2023-03-12T01:54:00,crh,5.12
2023-03-12T01:55:00,crh,5.11
2023-03-12T01:56:00,crh,5.12
2023-03-12T01:57:00,crh,5.11
2023-03-12T01:58:00,crh,5.48
2023-03-12T01:59:00,crh,5.51
2023-03-12T03:01:00,crh,5.53
2023-03-12T03:02:00,crh,5.35
2023-03-12T03:03:00,crh,5.38
2023-03-12T03:04:00,crh,13.52
2023-03-12T03:05:00,crh,13.27
2023-03-12T03:06:00,crh,13.11
2023-03-12T03:07:00,crh,14.53
2023-03-12T03:08:00,crh,5.03
2023-03-12T03:09:00,crh,5.04
2023-03-12T03:10:00,crh,5.01
2023-03-12T03:11:00,crh,3.64
2023-03-12T03:12:00,crh,3.99
2023-03-12T03:13:00,crh,5.02
2023-03-12T03:14:00,crh,3.46
2023-03-12T03:15:00,crh,3.56
2023-03-12T03:16:00,crh,3.52
2023-03-12T03:17:00,crh,3.51
2023-03-12T03:18:00,crh,3.52
2023-03-12T03:19:00,crh,3.51
2023-03-12T03:20:00,crh,3.71
2023-03-12T03:21:00,crh,5.08
2023-03-12T03:22:00,crh,5.09
2023-03-12T03:23:00,crh,4.99
2023-03-12T03:24:00,crh,5.03
2023-03-12T03:25:00,crh,5.58
2023-03-12T03:26:00,crh,4.64
2023-03-12T03:27:00,crh,5.06
2023-03-12T03:28:00,crh,4.61
2023-03-12T03:29:00,crh,4.33
2023-03-12T03:30:00,crh,5.07
2023-03-12T03:31:00,crh,5.02
2023-03-12T03:32:00,crh,3.49
2023-03-12T03:33:00,crh,3.66
2023-03-12T03:34:00,crh,3.49
2023-03-12T03:35:00,crh,3.46
2023-03-12T03:36:00,crh,3.47
2023-03-12T03:37:00,crh,3.46
2023-03-12T03:38:00,crh,3.47
2023-03-12T03:39:00,crh,3.48
2023-03-12T03:40:00,crh,5.69
2023-03-12T03:41:00,crh,5.12
2023-03-12T03:42:00,crh,5.12
2023-03-12T03:43:00,crh,5.12
2023-03-12T03:44:00,crh,5.13
2023-03-12T03:45:00,crh,3.56
2023-03-12T03:46:00,crh,3.91
2023-03-12T03:47:00,crh,4.12
2023-03-12T03:48:00,crh,3.92
2023-03-12T03:49:00,crh,3.92
2023-03-12T03:50:00,crh,3.93
2023-03-12T03:51:00,crh,3.92
2023-03-12T03:52:00,crh,3.95
2023-03-12T03:53:00,crh,3.98
2023-03-12T03:54:00,crh,3.99
2023-03-12T03:55:00,crh,3.98
2023-03-12T03:56:00,crh,3.64
2023-03-12T03:57:00,crh,5.29
2023-03-12T03:58:00,crh,5.18
2023-03-12T03:59:00,crh,5.18
2023-03-12T04:00:00,crh,5.17
2023-03-12T04:01:00,crh,6.38
2023-03-12T04:02:00,crh,5.12
2023-03-12T04:03:00,crh,5.12
2023-03-12T04:04:00,crh,5.11
2023-03-12T04:05:00,crh,5.11
2023-03-12T04:06:00,crh,5.02
2023-03-12T04:07:00,crh,3.53
2023-03-12T04:08:00,crh,3.47
2023-03-12T04:09:00,crh,3.54
2023-03-12T04:10:00,crh,3.46
2023-03-12T04:11:00,crh,3.46
2023-03-12T04:12:00,crh,3.46
2023-03-12T04:13:00,crh,3.46
2023-03-12T04:14:00,crh,3.47
2023-03-12T04:15:00,crh,4.95
2023-03-12T04:16:00,crh,5.18
2023-03-12T04:17:00,crh,5.19
2023-03-12T04:18:00,crh,5.17
2023-03-12T04:19:00,crh,5.26
2023-03-12T04:20:00,crh,5.03
2023-03-12T04:21:00,crh,6.25
2023-03-12T04:22:00,crh,5.20
2023-03-12T04:23:00,crh,5.02
2023-03-12T04:24:00,crh,3.47
2023-03-12T04:25:00,crh,3.46
2023-03-12T04:26:00,crh,5.03
2023-03-12T04:27:00,crh,5.16
2023-03-12T04:28:00,crh,5.02
2023-03-12T04:29:00,crh,5.01
2023-03-12T04:30:00,crh,5.58
2023-03-12T04:31:00,crh,6.19
2023-03-12T04:32:00,crh,5.03
2023-03-12T04:33:00,crh,5.04
2023-03-12T04:34:00,crh,5.02
2023-03-12T04:35:00,crh,5.38
2023-03-12T04:36:00,crh,3.81
2023-03-12T04:37:00,crh,3.88
2023-03-12T04:38:00,crh,3.88
2023-03-12T04:39:00,crh,4.57
2023-03-12T04:40:00,crh,3.98
2023-03-12T04:41:00,crh,6.80
2023-03-12T04:42:00,crh,5.54
2023-03-12T04:43:00,crh,5.54
2023-03-12T04:44:00,crh,5.54
2023-03-12T04:45:00,crh,5.16
2023-03-12T04:46:00,crh,5.17
2023-03-12T04:47:00,crh,5.12
2023-03-12T04:48:00,crh,5.12
2023-03-12T04:49:00,crh,5.13
2023-03-12T04:50:00,crh,5.12
2023-03-12T04:51:00,crh,5.13
2023-03-12T04:52:00,crh,5.13
2023-03-12T04:53:00,crh,4.37
2023-03-12T04:54:00,crh,5.12
2023-03-12T04:55:00,crh,5.12
2023-03-12T04:56:00,crh,5.12
2023-03-12T04:57:00,crh,5.12
2023-03-12T04:58:00,crh,5.12
2023-03-12T04:59:00,crh,5.11
2023-03-12T05:00:00,crh,5.10
2023-03-12T05:01:00,crh,3.56
2023-03-12T05:02:00,crh,3.56
2023-03-12T05:03:00,crh,3.55
2023-03-12T05:04:00,crh,3.46
2023-03-12T05:05:00,crh,5.01
2023-03-12T05:06:00,crh,5.19
2023-03-12T05:07:00,crh,5.18
2023-03-12T05:08:00,crh,5.19
2023-03-12T05:09:00,crh,5.02
2023-03-12T05:10:00,crh,5.02
2023-03-12T05:11:00,crh,5.03
2023-03-12T05:12:00,crh,5.02
2023-03-12T05:13:00,crh,5.02
2023-03-12T05:14:00,crh,5.04
2023-03-12T05:15:00,crh,5.03
2023-03-12T05:16:00,crh,5.10
2023-03-12T05:17:00,crh,5.09
2023-03-12T05:18:00,crh,5.08
2023-03-12T05:19:00,crh,5.08
2023-03-12T05:20:00,crh,5.08
2023-03-12T05:21:00,crh,5.08
2023-03-12T05:22:00,crh,5.08
2023-03-12T05:23:00,crh,5.08
2023-03-12T05:24:00,crh,5.44
2023-03-12T05:25:00,crh,5.38
2023-03-12T05:26:00,crh,5.37
2023-03-12T05:27:00,crh,5.37
2023-03-12T05:28:00,crh,5.37
2023-03-12T05:29:00,crh,5.39
2023-03-12T05:30:00,crh,5.36
2023-03-12T05:31:00,crh,6.54
2023-03-12T05:32:00,crh,5.38
2023-03-12T05:33:00,crh,5.05
2023-03-12T05:34:00,crh,5.04
2023-03-12T05:35:00,crh,5.03
2023-03-12T05:36:00,crh,5.02
2023-03-12T05:37:00,crh,5.13
2023-03-12T05:38:00,crh,5.13
2023-03-12T05:39:00,crh,5.12
2023-03-12T05:40:00,crh,5.11
2023-03-12T05:41:00,crh,5.13
2023-03-12T05:42:00,crh,3.57
2023-03-12T05:43:00,crh,5.12
2023-03-12T05:44:00,crh,5.11
2023-03-12T05:45:00,crh,5.12
2023-03-12T05:46:00,crh,5.12
2023-03-12T05:47:00,crh,3.57
2023-03-12T05:48:00,crh,5.12
2023-03-12T05:49:00,crh,5.13
2023-03-12T05:50:00,crh,3.56
2023-03-12T05:51:00,crh,3.60
2023-03-12T05:52:00,crh,3.58
2023-03-12T05:53:00,crh,3.56
2023-03-12T05:54:00,crh,3.55
2023-03-12T05:55:00,crh,5.11
2023-03-12T05:56:00,crh,5.28
2023-03-12T05:57:00,crh,5.35
2023-03-12T05:58:00,crh,5.35
2023-03-12T05:59:00,crh,4.05
2023-03-12T06:00:00,crh,13.48
2023-03-12T06:01:00,crh,12.97
2023-03-12T06:02:00,crh,14.38
2023-03-12T06:03:00,crh,5.10
2023-03-12T06:04:00,crh,5.10
2023-03-12T06:05:00,crh,5.04
2023-03-12T06:06:00,crh,5.10
2023-03-12T06:07:00,crh,3.47
2023-03-12T06:08:00,crh,3.49
2023-03-12T06:09:00,crh,3.48
2023-03-12T06:10:00,crh,3.48
2023-03-12T06:11:00,crh,3.48
2023-03-12T06:12:00,crh,3.85
2023-03-12T06:13:00,crh,3.84
2023-03-12T06:14:00,crh,3.83
2023-03-12T06:15:00,crh,3.85
2023-03-12T06:16:00,crh,3.88
2023-03-12T06:17:00,crh,3.85
2023-03-12T06:18:00,crh,3.93
2023-03-12T06:19:00,crh,3.85
2023-03-12T06:20:00,crh,3.85
2023-03-12T06:21:00,crh,5.41
2023-03-12T06:22:00,crh,5.06
2023-03-12T06:23:00,crh,5.09
2023-03-12T06:24:00,crh,3.48
2023-03-12T06:25:00,crh,3.47
2023-03-12T06:26:00,crh,3.57
2023-03-12T06:27:00,crh,3.49
2023-03-12T06:28:00,crh,3.48
2023-03-12T06:29:00,crh,3.47
2023-03-12T06:30:00,crh,3.50
2023-03-12T06:31:00,crh,3.48
2023-03-12T06:32:00,crh,3.48
2023-03-12T06:33:00,crh,3.48
2023-03-12T06:34:00,crh,3.48
2023-03-12T06:35:00,crh,5.02
2023-03-12T06:36:00,crh,5.03
2023-03-12T06:37:00,crh,5.11
2023-03-12T06:38:00,crh,5.09
2023-03-12T06:39:00,crh,3.54
2023-03-12T06:40:00,crh,5.08
2023-03-12T06:41:00,crh,5.09
2023-03-12T06:42:00,crh,5.12
2023-03-12T06:43:00,crh,5.08
2023-03-12T06:44:00,crh,5.09
2023-03-12T06:45:00,crh,5.08
2023-03-12T06:46:00,crh,5.21
2023-03-12T06:47:00,crh,5.18
2023-03-12T06:48:00,crh,5.15
2023-03-12T06:49:00,crh,5.14
2023-03-12T06:50:00,crh,5.13
2023-03-12T06:51:00,crh,6.35
2023-03-12T06:52:00,crh,5.13
2023-03-12T06:53:00,crh,5.24
2023-03-12T06:54:00,crh,5.12
2023-03-12T06:55:00,crh,5.12
2023-03-12T06:56:00,crh,5.12
2023-03-12T06:57:00,crh,5.13
2023-03-12T06:58:00,crh,3.57
2023-03-12T06:59:00,crh,3.65
2023-03-12T07:00:00,crh,3.58
2023-03-12T07:01:00,crh,5.08
2023-03-12T07:02:00,crh,4.25
2023-03-12T07:03:00,crh,4.15
2023-03-12T07:04:00,crh,4.34
2023-03-12T07:05:00,crh,4.35
2023-03-12T07:06:00,crh,4.34
2023-03-12T07:07:00,crh,4.34
2023-03-12T07:08:00,crh,4.44
2023-03-12T07:09:00,crh,5.88
2023-03-12T07:10:00,crh,5.97
2023-03-12T07:11:00,crh,5.88
2023-03-12T07:12:00,crh,6.10
2023-03-12T07:13:00,crh,3.99
2023-03-12T07:14:00,crh,3.99
2023-03-12T07:15:00,crh,3.90
2023-03-12T07:16:00,crh,3.93
2023-03-12T07:17:00,crh,3.90
2023-03-12T07:18:00,crh,4.09
2023-03-12T07:19:00,crh,3.88
2023-03-12T07:20:00,crh,3.91
2023-03-12T07:21:00,crh,4.15
2023-03-12T07:22:00,crh,4.02
2023-03-12T07:23:00,crh,3.98
2023-03-12T07:24:00,crh,3.95
2023-03-12T07:25:00,crh,3.95
2023-03-12T07:26:00,crh,4.42
2023-03-12T07:27:00,crh,4.03
2023-03-12T07:28:00,crh,4.04
2023-03-12T07:29:00,crh,3.95
2023-03-12T07:30:00,crh,3.89
2023-03-12T07:31:00,crh,3.89
2023-03-12T07:32:00,crh,4.03
2023-03-12T07:33:00,crh,5.43
2023-03-12T07:34:00,crh,5.43
2023-03-12T07:35:00,crh,4.86
2023-03-12T07:36:00,crh,5.59
2023-03-12T07:37:00,crh,5.60
2023-03-12T07:38:00,crh,5.44
2023-03-12T07:39:00,crh,3.90
2023-03-12T07:40:00,crh,5.44
2023-03-12T07:41:00,crh,5.43
2023-03-12T07:42:00,crh,5.42
2023-03-12T07:43:00,crh,5.43
2023-03-12T07:44:00,crh,5.42
2023-03-12T07:45:00,crh,5.44
2023-03-12T07:46:00,crh,3.89
2023-03-12T07:47:00,crh,4.09
2023-03-12T07:48:00,crh,3.90
2023-03-12T07:49:00,crh,3.89
2023-03-12T07:50:00,crh,3.88
2023-03-12T07:51:00,crh,4.27
2023-03-12T07:52:00,crh,5.54
2023-03-12T07:53:00,crh,4.34
2023-03-12T07:54:00,crh,4.35
2023-03-12T07:55:00,crh,4.45
2023-03-12T07:56:00,crh,4.38
2023-03-12T07:57:00,crh,4.35
2023-03-12T07:58:00,crh,4.35
2023-03-12T07:59:00,crh,4.35
2023-03-12T08:00:00,crh,4.34
2023-03-12T08:01:00,crh,4.07
2023-03-12T08:02:00,crh,4.07
2023-03-12T08:03:00,crh,4.05
2023-03-12T08:04:00,crh,4.05
2023-03-12T08:05:00,crh,4.06
2023-03-12T08:06:00,crh,4.05
2023-03-12T08:07:00,crh,5.60
2023-03-12T08:08:00,crh,5.59
2023-03-12T08:09:00,crh,5.59
2023-03-12T08:10:00,crh,5.52
2023-03-12T08:11:00,crh,5.53
2023-03-12T08:12:00,crh,6.70
2023-03-12T08:13:00,crh,5.52
2023-03-12T08:14:00,crh,5.62
2023-03-12T08:15:00,crh,5.53
2023-03-12T08:16:00,crh,5.52
2023-03-12T08:17:00,crh,5.57
2023-03-12T08:18:00,crh,5.42
2023-03-12T08:19:00,crh,5.48
2023-03-12T08:20:00,crh,5.43
2023-03-12T08:21:00,crh,5.43
2023-03-12T08:22:00,crh,5.12
2023-03-12T08:23:00,crh,4.48
2023-03-12T08:24:00,crh,5.44
2023-03-12T08:25:00,crh,5.43
2023-03-12T08:26:00,crh,5.60
2023-03-12T08:27:00,crh,5.60
2023-03-12T08:28:00,crh,5.58
2023-03-12T08:29:00,crh,5.44
2023-03-12T08:30:00,crh,5.43
2023-03-12T08:31:00,crh,5.41
2023-03-12T08:32:00,crh,6.60
2023-03-12T08:33:00,crh,5.41
2023-03-12T08:34:00,crh,5.41
2023-03-12T08:35:00,crh,5.42
2023-03-12T08:36:00,crh,5.42
2023-03-12T08:37:00,crh,5.43
2023-03-12T08:38:00,crh,3.86
2023-03-12T08:39:00,crh,3.88
2023-03-12T08:40:00,crh,3.85
2023-03-12T08:41:00,crh,3.89
2023-03-12T08:42:00,crh,4.23
2023-03-12T08:43:00,crh,4.23
2023-03-12T08:44:00,crh,4.23
2023-03-12T08:45:00,crh,4.30
2023-03-12T08:46:00,crh,4.28
2023-03-12T08:47:00,crh,4.29
2023-03-12T08:48:00,crh,4.30
2023-03-12T08:49:00,crh,4.28
2023-03-12T08:50:00,crh,4.29
2023-03-12T08:51:00,crh,4.06
2023-03-12T08:52:00,crh,4.05
2023-03-12T08:53:00,crh,4.02
2023-03-12T08:54:00,crh,3.98
2023-03-12T08:55:00,crh,3.97
2023-03-12T08:56:00,crh,3.98
2023-03-12T08:57:00,crh,3.97
2023-03-12T08:58:00,crh,3.98
2023-03-12T08:59:00,crh,3.97
2023-03-12T09:00:00,crh,13.49
2023-03-12T09:01:00,crh,14.88
2023-03-12T09:02:00,crh,15.90
2023-03-12T09:03:00,crh,5.52
2023-03-12T09:04:00,crh,5.53
2023-03-12T09:05:00,crh,5.52
2023-03-12T09:06:00,crh,5.51
2023-03-12T09:07:00,crh,5.52
2023-03-12T09:08:00,crh,5.52
2023-03-12T09:09:00,crh,3.98
2023-03-12T09:10:00,crh,5.51
2023-03-12T09:11:00,crh,5.50
2023-03-12T09:12:00,crh,5.51
2023-03-12T09:13:00,crh,4.38
2023-03-12T09:14:00,crh,4.62
2023-03-12T09:15:00,crh,5.60
2023-03-12T09:16:00,crh,5.62
2023-03-12T09:17:00,crh,5.58
2023-03-12T09:18:00,crh,5.50
2023-03-12T09:19:00,crh,5.42
2023-03-12T09:20:00,crh,5.41
2023-03-12T09:21:00,crh,5.42
2023-03-12T09:22:00,crh,5.43
2023-03-12T09:23:00,crh,6.62
2023-03-12T09:24:00,crh,4.23
2023-03-12T09:25:00,crh,3.72
2023-03-12T09:26:00,crh,3.73
2023-03-12T09:27:00,crh,3.71
2023-03-12T09:28:00,crh,3.82
2023-03-12T09:29:00,crh,4.33
2023-03-12T09:30:00,crh,3.80
2023-03-12T09:31:00,crh,3.78
2023-03-12T09:32:00,crh,3.77
2023-03-12T09:33:00,crh,3.78
2023-03-12T09:34:00,crh,3.79
2023-03-12T09:35:00,crh,3.78
2023-03-12T09:36:00,crh,3.80
2023-03-12T09:37:00,crh,5.33
2023-03-12T09:38:00,crh,5.30
2023-03-12T09:39:00,crh,5.62
2023-03-12T09:40:00,crh,5.62
2023-03-12T09:41:00,crh,4.06
2023-03-12T09:42:00,crh,4.27
2023-03-12T09:43:00,crh,4.07
2023-03-12T09:44:00,crh,5.80
2023-03-12T09:45:00,crh,5.62
2023-03-12T09:46:00,crh,6.18
2023-03-12T09:47:00,crh,5.63
2023-03-12T09:48:00,crh,3.84
2023-03-12T09:49:00,crh,5.38
2023-03-12T09:50:00,crh,5.36
2023-03-12T09:51:00,crh,5.36
2023-03-12T09:52:00,crh,5.38
2023-03-12T09:53:00,crh,5.36
2023-03-12T09:54:00,crh,5.54
2023-03-12T09:55:00,crh,3.82
2023-03-12T09:56:00,crh,3.80
2023-03-12T09:57:00,crh,5.01
2023-03-12T09:58:00,crh,5.35
2023-03-12T09:59:00,crh,5.36
2023-03-12T10:00:00,crh,5.37
2023-03-12T10:01:00,crh,5.36
2023-03-12T10:02:00,crh,5.45
2023-03-12T10:03:00,crh,6.55
2023-03-12T10:04:00,crh,5.36
2023-03-12T10:05:00,crh,5.42
2023-03-12T10:06:00,crh,5.51
2023-03-12T10:07:00,crh,5.54
2023-03-12T10:08:00,crh,3.98
2023-03-12T10:09:00,crh,3.89
2023-03-12T10:10:00,crh,3.82
2023-03-12T10:11:00,crh,5.45
2023-03-12T10:12:00,crh,5.42
2023-03-12T10:13:00,crh,5.42
2023-03-12T10:14:00,crh,5.42
2023-03-12T10:15:00,crh,5.43
2023-03-12T10:16:00,crh,5.37
2023-03-12T10:17:00,crh,5.33
2023-03-12T10:18:00,crh,3.72
2023-03-12T10:19:00,crh,3.71
2023-03-12T10:20:00,crh,3.72
2023-03-12T10:21:00,crh,3.72
2023-03-12T10:22:00,crh,3.72
2023-03-12T10:23:00,crh,3.74
2023-03-12T10:24:00,crh,3.73
2023-03-12T10:25:00,crh,3.72
2023-03-12T10:26:00,crh,3.72
2023-03-12T10:27:00,crh,3.71
2023-03-12T10:28:00,crh,3.72
2023-03-12T10:29:00,crh,3.72
2023-03-12T10:30:00,crh,3.72
2023-03-12T10:31:00,crh,5.27
2023-03-12T10:32:00,crh,5.26
2023-03-12T10:33:00,crh,5.28
2023-03-12T10:34:00,crh,5.26
2023-03-12T10:35:00,crh,5.27
2023-03-12T10:36:00,crh,5.67
2023-03-12T10:37:00,crh,5.61
2023-03-12T10:38:00,crh,5.74
2023-03-12T10:39:00,crh,5.62
2023-03-12T10:40:00,crh,5.63
2023-03-12T10:41:00,crh,5.63
2023-03-12T10:42:00,crh,5.63
2023-03-12T10:43:00,crh,5.62
2023-03-12T10:44:00,crh,5.62
2023-03-12T10:45:00,crh,5.29
2023-03-12T10:46:00,crh,4.37
2023-03-12T10:47:00,crh,5.28
2023-03-12T10:48:00,crh,5.27
2023-03-12T10:49:00,crh,5.29
2023-03-12T10:50:00,crh,5.26
2023-03-12T10:51:00,crh,5.27
2023-03-12T10:52:00,crh,5.32
2023-03-12T10:53:00,crh,5.33
2023-03-12T10:54:00,crh,5.33
2023-03-12T10:55:00,crh,5.32
2023-03-12T10:56:00,crh,5.47
2023-03-12T10:57:00,crh,3.95
2023-03-12T10:58:00,crh,3.78
2023-03-12T10:59:00,crh,3.77
2023-03-12T11:00:00,crh,3.83
2023-03-12T11:01:00,crh,3.82
2023-03-12T11:02:00,crh,3.81
2023-03-12T11:03:00,crh,3.82
2023-03-12T11:04:00,crh,3.81
2023-03-12T11:05:00,crh,3.80
2023-03-12T11:06:00,crh,3.81
2023-03-12T11:07:00,crh,3.81
2023-03-12T11:08:00,crh,3.89
2023-03-12T11:09:00,crh,3.94
2023-03-12T11:10:00,crh,3.88
2023-03-12T11:11:00,crh,5.47
2023-03-12T11:12:00,crh,4.06
2023-03-12T11:13:00,crh,5.43
2023-03-12T11:14:00,crh,8.05
2023-03-12T11:15:00,crh,5.44
2023-03-12T11:16:00,crh,5.42
2023-03-12T11:17:00,crh,5.42
2023-03-12T11:18:00,crh,5.46
2023-03-12T11:19:00,crh,5.42
2023-03-12T11:20:00,crh,3.88
2023-03-12T11:21:00,crh,3.88
2023-03-12T11:22:00,crh,3.88
2023-03-12T11:23:00,crh,4.07
2023-03-12T11:24:00,crh,5.40
2023-03-12T11:25:00,crh,5.22
2023-03-12T11:26:00,crh,4.07
2023-03-12T11:27:00,crh,3.87
2023-03-12T11:28:00,crh,3.77
2023-03-12T11:29:00,crh,5.35
2023-03-12T11:30:00,crh,5.32
2023-03-12T11:31:00,crh,5.34
2023-03-12T11:32:00,crh,5.35
2023-03-12T11:33:00,crh,5.68
2023-03-12T11:34:00,crh,5.69
2023-03-12T11:35:00,crh,5.68
2023-03-12T11:36:00,crh,4.22
2023-03-12T11:37:00,crh,4.20
2023-03-12T11:38:00,crh,4.19
2023-03-12T11:39:00,crh,5.75
2023-03-12T11:40:00,crh,5.75
2023-03-12T11:41:00,crh,5.78
2023-03-12T11:42:00,crh,5.75
2023-03-12T11:43:00,crh,5.41
2023-03-12T11:44:00,crh,3.85
2023-03-12T11:45:00,crh,3.78
2023-03-12T11:46:00,crh,5.49
2023-03-12T11:47:00,crh,5.53
2023-03-12T11:48:00,crh,5.33
2023-03-12T11:49:00,crh,5.33
2023-03-12T11:50:00,crh,5.33
2023-03-12T11:51:00,crh,5.47
2023-03-12T11:52:00,crh,5.33
2023-03-12T11:53:00,crh,5.37
2023-03-12T11:54:00,crh,5.32
2023-03-12T11:55:00,crh,5.33
2023-03-12T11:56:00,crh,3.78
2023-03-12T11:57:00,crh,4.45
2023-03-12T11:58:00,crh,5.34
2023-03-12T11:59:00,crh,5.33
2023-03-12T12:00:00,crh,5.33
2023-03-12T12:01:00,crh,5.31
2023-03-12T12:02:00,crh,5.34
2023-03-12T12:03:00,crh,5.33
2023-03-12T12:04:00,crh,5.43
2023-03-12T12:05:00,crh,5.42
2023-03-12T12:06:00,crh,5.43
2023-03-12T12:07:00,crh,5.43
2023-03-12T12:08:00,crh,5.44
2023-03-12T12:09:00,crh,5.46
2023-03-12T12:10:00,crh,5.49
2023-03-12T12:11:00,crh,5.42
2023-03-12T12:12:00,crh,3.89
2023-03-12T12:13:00,crh,3.90
2023-03-12T12:14:00,crh,13.48
2023-03-12T12:15:00,crh,13.33
2023-03-12T12:16:00,crh,13.19
2023-03-12T12:17:00,crh,13.14
2023-03-12T12:18:00,crh,4.02
2023-03-12T12:19:00,crh,3.95
2023-03-12T12:20:00,crh,4.50
2023-03-12T12:21:00,crh,4.06
2023-03-12T12:22:00,crh,3.93
2023-03-12T12:23:00,crh,3.92
2023-03-12T12:24:00,crh,3.92
2023-03-12T12:25:00,crh,3.88
2023-03-12T12:26:00,crh,3.87
2023-03-12T12:27:00,crh,5.42
2023-03-12T12:28:00,crh,4.56
2023-03-12T12:29:00,crh,5.36
2023-03-12T12:30:00,crh,5.68
2023-03-12T12:31:00,crh,4.14
2023-03-12T12:32:00,crh,4.14
2023-03-12T12:33:00,crh,4.13
2023-03-12T12:34:00,crh,4.13
2023-03-12T12:35:00,crh,6.90
2023-03-12T12:36:00,crh,5.83
2023-03-12T12:37:00,crh,5.84
2023-03-12T12:38:00,crh,4.14
2023-03-12T12:39:00,crh,4.19
2023-03-12T12:40:00,crh,5.34
2023-03-12T12:41:00,crh,5.33
2023-03-12T12:42:00,crh,5.32
2023-03-12T12:43:00,crh,5.32
2023-03-12T12:44:00,crh,5.34
2023-03-12T12:45:00,crh,5.34
2023-03-12T12:46:00,crh,3.77
2023-03-12T12:47:00,crh,4.71
2023-03-12T12:48:00,crh,3.79
2023-03-12T12:49:00,crh,3.78
2023-03-12T12:50:00,crh,3.79
2023-03-12T12:51:00,crh,3.77
2023-03-12T12:52:00,crh,3.77
2023-03-12T12:53:00,crh,5.31
2023-03-12T12:54:00,crh,5.32
2023-03-12T12:55:00,crh,5.33
2023-03-12T12:56:00,crh,3.78
2023-03-12T12:57:00,crh,5.33
2023-03-12T12:58:00,crh,3.84
2023-03-12T12:59:00,crh,3.85
2023-03-12T13:00:00,crh,3.84
2023-03-12T13:01:00,crh,4.61
2023-03-12T13:02:00,crh,3.94
2023-03-12T13:03:00,crh,5.47
2023-03-12T13:04:00,crh,5.49
2023-03-12T13:05:00,crh,5.80
2023-03-12T13:06:00,crh,5.42
2023-03-12T13:07:00,crh,5.48
2023-03-12T13:08:00,crh,5.42
2023-03-12T13:09:00,crh,3.88
2023-03-12T13:10:00,crh,3.87
2023-03-12T13:11:00,crh,3.91
2023-03-12T13:12:00,crh,3.95
2023-03-12T13:13:00,crh,3.89
2023-03-12T13:14:00,crh,3.88
2023-03-12T13:15:00,crh,5.13
2023-03-12T13:16:00,crh,3.88
2023-03-12T13:17:00,crh,3.94
2023-03-12T13:18:00,crh,4.43
2023-03-12T13:19:00,crh,5.43
2023-03-12T13:20:00,crh,5.51
2023-03-12T13:21:00,crh,5.41
2023-03-12T13:22:00,crh,5.56
2023-03-12T13:23:00,crh,5.67
2023-03-12T13:24:00,crh,5.67
2023-03-12T13:25:00,crh,5.97
2023-03-12T13:26:00,crh,6.09
2023-03-12T13:27:00,crh,4.54
2023-03-12T13:28:00,crh,4.37
2023-03-12T13:29:00,crh,4.38
2023-03-12T13:30:00,crh,4.32
2023-03-12T13:31:00,crh,4.29
2023-03-12T13:32:00,crh,5.86
2023-03-12T13:33:00,crh,4.30
2023-03-12T13:34:00,crh,4.29
2023-03-12T13:35:00,crh,3.95
2023-03-12T13:36:00,crh,3.95
2023-03-12T13:37:00,crh,3.93
2023-03-12T13:38:00,crh,5.12
2023-03-12T13:39:00,crh,5.48
2023-03-12T13:40:00,crh,5.54
2023-03-12T13:41:00,crh,5.53
2023-03-12T13:42:00,crh,5.55
2023-03-12T13:43:00,crh,3.99
2023-03-12T13:44:00,crh,3.99
2023-03-12T13:45:00,crh,3.99
2023-03-12T13:46:00,crh,3.98
2023-03-12T13:47:00,crh,3.98
2023-03-12T13:48:00,crh,3.98
2023-03-12T13:49:00,crh,3.93
2023-03-12T13:50:00,crh,3.92
2023-03-12T13:51:00,crh,5.48
2023-03-12T13:52:00,crh,5.53
2023-03-12T13:53:00,crh,5.47
2023-03-12T13:54:00,crh,5.47
2023-03-12T13:55:00,crh,5.47
2023-03-12T13:56:00,crh,5.45
2023-03-12T13:57:00,crh,5.46
2023-03-12T13:58:00,crh,5.49
2023-03-12T13:59:00,crh,5.46
2023-03-12T14:00:00,crh,5.56
2023-03-12T14:01:00,crh,5.56
2023-03-12T14:02:00,crh,4.03
2023-03-12T14:03:00,crh,5.22
2023-03-12T14:04:00,crh,5.72
2023-03-12T14:05:00,crh,5.80
2023-03-12T14:06:00,crh,5.79
2023-03-12T14:07:00,crh,5.69
2023-03-12T14:08:00,crh,5.71
2023-03-12T14:09:00,crh,5.71
2023-03-12T14:10:00,crh,5.71
2023-03-12T14:11:00,crh,5.73
2023-03-12T14:12:00,crh,5.73
2023-03-12T14:13:00,crh,5.73
2023-03-12T14:14:00,crh,4.33
2023-03-12T14:15:00,crh,4.19
2023-03-12T14:16:00,crh,4.37
2023-03-12T14:17:00,crh,4.75
2023-03-12T14:18:00,crh,6.12
2023-03-12T14:19:00,crh,6.11
2023-03-12T14:20:00,crh,6.67
2023-03-12T14:21:00,crh,6.19
2023-03-12T14:22:00,crh,6.19
2023-03-12T14:23:00,crh,6.21
2023-03-12T14:24:00,crh,6.19
2023-03-12T14:25:00,crh,6.19
2023-03-12T14:26:00,crh,4.64
2023-03-12T14:27:00,crh,4.21
2023-03-12T14:28:00,crh,4.26
2023-03-12T14:29:00,crh,4.17
2023-03-12T14:30:00,crh,5.74
2023-03-12T14:31:00,crh,5.72
2023-03-12T14:32:00,crh,5.71
2023-03-12T14:33:00,crh,5.72
2023-03-12T14:34:00,crh,5.71
2023-03-12T14:35:00,crh,4.32
2023-03-12T14:36:00,crh,4.17
2023-03-12T14:37:00,crh,4.19
2023-03-12T14:38:00,crh,4.18
2023-03-12T14:39:00,crh,14.36
2023-03-12T14:40:00,crh,4.12
2023-03-12T14:41:00,crh,4.12
2023-03-12T14:42:00,crh,4.12
2023-03-12T14:43:00,crh,4.67
2023-03-12T14:44:00,crh,5.67
2023-03-12T14:45:00,crh,5.67
2023-03-12T14:46:00,crh,5.67